This is the latest recevied weather packets stored in our database for station/object OK1FET-5. If no packets are shown the sender has not sent any weather packets the latest 10 day(s).
| Time | Temp. | Humidity | Pressure | Rain* | Wind** | Luminosity | Snow |
|---|---|---|---|---|---|---|---|
| 1777870612 | 12.78° C | 45% | 1014.5 hPa | - | - | - | - |
| 1777870317 | 12.78° C | 45% | 1014.4 hPa | - | - | - | - |
| 1777870022 | 12.78° C | 45% | 1014.2 hPa | - | - | - | - |
| 1777869728 | 13.33° C | 45% | 1014.1 hPa | - | - | - | - |
| 1777869434 | 13.33° C | 44% | 1014.1 hPa | - | - | - | - |
| 1777869140 | 13.33° C | 46% | 1014.1 hPa | - | - | - | - |
| 1777868845 | 12.78° C | 48% | 1013.8 hPa | - | - | - | - |
| 1777868551 | 12.78° C | 47% | 1013.8 hPa | - | - | - | - |
| 1777868256 | 12.78° C | 48% | 1013.8 hPa | - | - | - | - |
| 1777867962 | 12.78° C | 46% | 1013.9 hPa | - | - | - | - |
| 1777867668 | 12.78° C | 46% | 1013.9 hPa | - | - | - | - |
| 1777867079 | 12.78° C | 42% | 1014.1 hPa | - | - | - | - |
| 1777866785 | 12.78° C | 42% | 1014 hPa | - | - | - | - |
| 1777866491 | 12.78° C | 42% | 1014.1 hPa | - | - | - | - |
| 1777866197 | 12.78° C | 42% | 1014 hPa | - | - | - | - |
| 1777865902 | 12.78° C | 42% | 1014 hPa | - | - | - | - |
| 1777865608 | 12.78° C | 43% | 1014.1 hPa | - | - | - | - |
| 1777865314 | 12.22° C | 43% | 1014.1 hPa | - | - | - | - |
| 1777865019 | 12.22° C | 43% | 1014.2 hPa | - | - | - | - |
| 1777864725 | 12.78° C | 43% | 1014.2 hPa | - | - | - | - |
| 1777864431 | 12.78° C | 42% | 1014.1 hPa | - | - | - | - |
| 1777864137 | 12.78° C | 43% | 1014.1 hPa | - | - | - | - |
| 1777863843 | 12.78° C | 43% | 1014.1 hPa | - | - | - | - |
| 1777863548 | 12.78° C | 42% | 1014 hPa | - | - | - | - |
| 1777863254 | 12.78° C | 43% | 1014 hPa | - | - | - | - |
* Rain since midnight (hover to see other rain measurements)
** Current wind speed in m/s (hover to see current wind gust speed)